map of LBV home
LBV - Airport
Location
City:  Libreville, Estuaire, Gabon
Name:Léon M'Ba International Airport
ICAO:FOOL
IATA:LBV

Details
Type:Airport (Aerodrome, Airfield)
Use:Public/Civil, International (customs port of entry)
Latitude:0°27'30"N (0.458333)
Longitude:9°24'44"E (9.412222)
Elevation:39 ft (12 m)
Variation:2.00°W (WMM2015 magnetic declination)
0.13° annual change
Runways:1
Longest:9843 × 148 ft (3000 × 45 m)

Time
Time Zone:UTC+1
Local Time:

Weather
METAR:FOOL 280600Z 17009KT 140V200 7000 -DZ SCT008 24/22 Q1015 NOSIG
TAF:FOOL 280500Z 2806/2912 18010KT 8000 SCT010 BKN030 PROB30
TEMPO 2808/2811 BKN010

Related Locations
Nearby:
Farthest:CIS: 12257 mi / 19725 km
Kanton Island (Canton Island, Abariringa Island) [Canton Island Airport], P, KI

Find:

   beyond  
but within

Other Information
Maps:
NOTAMs:
Links:
Sources:

  
flag of Gabon   

Sectional Chart

Flight Planning
at skyvector.com

Satellite Image

Google Maps Satellite view

 

Copyright © 2004-2017 Karl L. Swartz. All rights reserved.
The Great Circle Mapper name and logo are trademarks of the Great Circle Mapper.
All other trademarks mentioned herein belong to their respective owners.
Please see credits for attibutions and further copyright information.

  Follow gcmap on Facebook Follow gcmap on Twitter Follow gcmap on Google+ GCmap on LinkedIn

hCard Microformat

Geo Microformat